Stündliche Wetter Abartzuza

Heute, 8 März, Montag

Zeit Temperatur Niederschläge Wind Luftdruck Luftfeuchtigkeit
00:00 +4°C° 0 mm 2 m/S 710 mmHg 93%
01:00 +4°C° 0 mm 2 m/S 709 mmHg 92%
02:00 +4°C° 0 mm 2 m/S 709 mmHg 91%
03:00 +4°C° 0 mm 2 m/S 709 mmHg 91%
04:00 +4°C° 0 mm 2 m/S 709 mmHg 91%
05:00 +4°C° 0 mm 2 m/S 709 mmHg 90%
06:00 +4°C° 0 mm 2 m/S 709 mmHg 90%
07:00 +4°C° 0 mm 2 m/S 709 mmHg 89%
08:00 +5°C° 0 mm 2 m/S 709 mmHg 88%
09:00 +5°C° 0 mm 2 m/S 710 mmHg 87%
10:00 +5°C° 0 mm 3 m/S 710 mmHg 84%
11:00 +5°C° 0 mm 3 m/S 710 mmHg 81%
12:00 +6°C° 0 mm 4 m/S 710 mmHg 79%
13:00 +6°C° 0 mm 4 m/S 710 mmHg 77%
14:00 +6°C° 0 mm 4 m/S 709 mmHg 75%
15:00 +6°C° 0 mm 4 m/S 709 mmHg 73%
16:00 +5°C° 0 mm 4 m/S 709 mmHg 76%
17:00 +4°C° 0 mm 3 m/S 709 mmHg 80%
18:00 +3°C° 0 mm 3 m/S 709 mmHg 83%
19:00 +3°C° 0 mm 3 m/S 710 mmHg 86%
20:00 +3°C° 0 mm 2 m/S 710 mmHg 89%
21:00 +2°C° 0 mm 2 m/S 711 mmHg 92%
22:00 +2°C° 0 mm 2 m/S 711 mmHg 92%
23:00 +2°C° 0 mm 2 m/S 711 mmHg 91%

Morgen, 9 März, Dienstag

Zeit Temperatur Niederschläge Wind Luftdruck Luftfeuchtigkeit
00:00 +2°C° 0 mm 2 m/S 711 mmHg 91%
01:00 +2°C° 0.1 mm 2 m/S 711 mmHg 92%
02:00 +2°C° 0.1 mm 2 m/S 711 mmHg 93%
03:00 +2°C° 0.1 mm 2 m/S 711 mmHg 94%
04:00 +2°C° 0.1 mm 2 m/S 711 mmHg 93%
05:00 +3°C° 0.1 mm 2 m/S 711 mmHg 92%
06:00 +2°C° 0.1 mm 3 m/S 712 mmHg 91%
07:00 +2°C° 0.1 mm 3 m/S 712 mmHg 87%
08:00 +3°C° 0.1 mm 3 m/S 712 mmHg 83%
09:00 +3°C° 0.1 mm 3 m/S 712 mmHg 79%
10:00 +4°C° 0.1 mm 3 m/S 712 mmHg 76%
11:00 +5°C° 0.1 mm 4 m/S 712 mmHg 74%
12:00 +5°C° 0.1 mm 4 m/S 712 mmHg 71%
13:00 +5°C° 0 mm 4 m/S 712 mmHg 70%
14:00 +5°C° 0 mm 4 m/S 712 mmHg 69%
15:00 +6°C° 0 mm 4 m/S 711 mmHg 69%
16:00 +5°C° 0 mm 4 m/S 711 mmHg 72%
17:00 +3°C° 0 mm 3 m/S 711 mmHg 76%
18:00 +2°C° 0 mm 3 m/S 711 mmHg 80%
19:00 +2°C° 0 mm 3 m/S 712 mmHg 83%
20:00 +2°C° 0 mm 2 m/S 712 mmHg 86%
21:00 +1°C° 0 mm 2 m/S 713 mmHg 90%
22:00 -1°C° 0 mm 2 m/S 712 mmHg 90%
23:00 -1°C° 0 mm 2 m/S 712 mmHg 91%

übermorgen, 10 März, Mittwoch

Zeit Temperatur Niederschläge Wind Luftdruck Luftfeuchtigkeit
00:00 -1°C° 0 mm 2 m/S 712 mmHg 91%
01:00 -1°C° 0 mm 2 m/S 712 mmHg 91%
02:00 0°C° 0 mm 1 m/S 712 mmHg 90%
03:00 0°C° 0 mm 1 m/S 712 mmHg 90%
04:00 0°C° 0 mm 1 m/S 712 mmHg 86%
05:00 0°C° 0 mm 1 m/S 712 mmHg 83%
06:00 0°C° 0 mm 1 m/S 712 mmHg 79%
07:00 +2°C° 0 mm 1 m/S 713 mmHg 69%
08:00 +5°C° 0 mm 1 m/S 713 mmHg 59%
09:00 +7°C° 0 mm 1 m/S 714 mmHg 49%
10:00 +9°C° 0 mm 1 m/S 714 mmHg 44%
11:00 +11°C° 0 mm 1 m/S 714 mmHg 38%
12:00 +13°C° 0 mm 1 m/S 714 mmHg 33%
13:00 +14°C° 0 mm 1 m/S 714 mmHg 33%
14:00 +14°C° 0 mm 1 m/S 713 mmHg 32%
15:00 +15°C° 0 mm 1 m/S 713 mmHg 32%
16:00 +13°C° 0 mm 1 m/S 713 mmHg 39%
17:00 +11°C° 0 mm 1 m/S 713 mmHg 46%
18:00 +9°C° 0 mm 0 m/S 713 mmHg 52%
19:00 +9°C° 0 mm 1 m/S 713 mmHg 53%
20:00 +9°C° 0 mm 1 m/S 713 mmHg 53%
21:00 +8°C° 0 mm 1 m/S 713 mmHg 54%
22:00 +8°C° 0 mm 1 m/S 713 mmHg 55%
23:00 +8°C° 0 mm 1 m/S 713 mmHg 56%

11 März, Donnerstag

Zeit Temperatur Niederschläge Wind Luftdruck Luftfeuchtigkeit
00:00 +7°C° 0 mm 1 m/S 713 mmHg 57%
01:00 +7°C° 0 mm 1 m/S 713 mmHg 57%
02:00 +7°C° 0 mm 1 m/S 713 mmHg 58%
03:00 +7°C° 0 mm 1 m/S 713 mmHg 58%
04:00 +7°C° 0 mm 1 m/S 713 mmHg 59%
05:00 +7°C° 0 mm 1 m/S 713 mmHg 59%
06:00 +6°C° 0 mm 1 m/S 713 mmHg 60%
07:00 +8°C° 0 mm 1 m/S 713 mmHg 58%
08:00 +9°C° 0 mm 1 m/S 714 mmHg 56%
09:00 +11°C° 0 mm 1 m/S 714 mmHg 53%
10:00 +12°C° 0 mm 1 m/S 714 mmHg 53%
11:00 +13°C° 0 mm 1 m/S 714 mmHg 52%
12:00 +15°C° 0 mm 2 m/S 714 mmHg 51%
13:00 +15°C° 0 mm 2 m/S 714 mmHg 52%
14:00 +16°C° 0 mm 2 m/S 713 mmHg 53%
15:00 +16°C° 0 mm 2 m/S 713 mmHg 55%
16:00 +15°C° 0 mm 1 m/S 713 mmHg 61%
17:00 +13°C° 0 mm 1 m/S 713 mmHg 68%
18:00 +12°C° 0 mm 1 m/S 714 mmHg 75%
19:00 +11°C° 0.1 mm 1 m/S 714 mmHg 78%
20:00 +11°C° 0.1 mm 1 m/S 714 mmHg 82%
21:00 +11°C° 0.1 mm 1 m/S 714 mmHg 85%
22:00 +10°C° 0.4 mm 1 m/S 714 mmHg 88%
23:00 +10°C° 0.4 mm 1 m/S 714 mmHg 90%

12 März, Freitag

Zeit Temperatur Niederschläge Wind Luftdruck Luftfeuchtigkeit
00:00 +9°C° 0.4 mm 1 m/S 714 mmHg 93%
01:00 +9°C° 0.2 mm 1 m/S 714 mmHg 93%
02:00 +9°C° 0.2 mm 1 m/S 713 mmHg 93%
03:00 +8°C° 0.2 mm 2 m/S 713 mmHg 93%
04:00 +7°C° 0.4 mm 2 m/S 713 mmHg 93%
05:00 +7°C° 0.4 mm 2 m/S 713 mmHg 92%
06:00 +7°C° 0.4 mm 2 m/S 713 mmHg 92%
07:00 +7°C° 0.1 mm 2 m/S 713 mmHg 90%
08:00 +7°C° 0.1 mm 2 m/S 713 mmHg 88%
09:00 +7°C° 0.1 mm 2 m/S 713 mmHg 86%
10:00 +8°C° 0 mm 2 m/S 714 mmHg 80%
11:00 +8°C° 0 mm 3 m/S 714 mmHg 74%
12:00 +9°C° 0 mm 3 m/S 714 mmHg 68%
13:00 +10°C° 0.1 mm 3 m/S 714 mmHg 66%
14:00 +10°C° 0.1 mm 3 m/S 713 mmHg 65%
15:00 +10°C° 0.1 mm 4 m/S 713 mmHg 63%
16:00 +9°C° 0.1 mm 3 m/S 713 mmHg 69%
17:00 +8°C° 0.1 mm 3 m/S 713 mmHg 75%
18:00 +7°C° 0.1 mm 3 m/S 713 mmHg 80%
19:00 +6°C° 0 mm 2 m/S 713 mmHg 83%
20:00 +5°C° 0 mm 2 m/S 714 mmHg 86%
21:00 +5°C° 0 mm 1 m/S 714 mmHg 89%
22:00 +5°C° 0 mm 1 m/S 714 mmHg 87%
23:00 +5°C° 0 mm 1 m/S 715 mmHg 86%

13 März, Samstag

Zeit Temperatur Niederschläge Wind Luftdruck Luftfeuchtigkeit
00:00 +5°C° 0 mm 1 m/S 715 mmHg 85%
01:00 +5°C° 0 mm 1 m/S 715 mmHg 87%
02:00 +4°C° 0 mm 1 m/S 714 mmHg 89%
03:00 +3°C° 0 mm 0 m/S 714 mmHg 90%
04:00 +4°C° 0 mm 1 m/S 714 mmHg 90%
05:00 +4°C° 0 mm 1 m/S 714 mmHg 90%
06:00 +3°C° 0 mm 1 m/S 715 mmHg 90%
07:00 +5°C° 0 mm 1 m/S 715 mmHg 83%
08:00 +7°C° 0 mm 1 m/S 716 mmHg 76%
09:00 +7°C° 0 mm 2 m/S 716 mmHg 69%
10:00 +8°C° 0 mm 2 m/S 716 mmHg 65%
11:00 +10°C° 0 mm 3 m/S 716 mmHg 60%
12:00 +11°C° 0 mm 3 m/S 716 mmHg 56%
13:00 +11°C° 0 mm 3 m/S 716 mmHg 56%
14:00 +11°C° 0 mm 3 m/S 716 mmHg 56%
15:00 +11°C° 0 mm 3 m/S 716 mmHg 56%
16:00 +10°C° 0 mm 3 m/S 716 mmHg 63%
17:00 +9°C° 0 mm 3 m/S 716 mmHg 70%
18:00 +7°C° 0 mm 3 m/S 716 mmHg 77%
19:00 +6°C° 0 mm 2 m/S 716 mmHg 81%
20:00 +5°C° 0 mm 2 m/S 717 mmHg 85%
21:00 +5°C° 0 mm 1 m/S 717 mmHg 89%
22:00 +5°C° 0 mm 1 m/S 717 mmHg 89%
23:00 +5°C° 0 mm 1 m/S 717 mmHg 89%
Mehr zeigen

Wir brauchen deine Erlaubnis

Meteoprog und unser Service Anbieter werden persönliche Daten aufbewahren, so wie Cookies, Geräte Bezeichnung oder ähnliche Technologien von deinem Gerät und Prozess, so wie Persönliche Daten Inhalte und Werbungen, genauso wie social Media und den Verkehr zu analysieren.

  • Aufbewahrung und/oder Zugang zu deiner Geräte Informationen.

    Cookies, Geräte Bezeichnung oder andere Informationen, können aufbewahrt oder Zugang zu deinem Gerät erhalten, für den Grund, der oben angegeben wird.

  • Personalisierte Werbung und Inhalte, Messungen, Einblick in das Publikum und Produkt Entwicklung.

    Werbungen und Inhalte können personalisiert werden, basierend auf ein Profil. Mehr Daten können besser personalisierte Werbungen und Inhalte hinzufügen. Werbung und Inhalte können gezeigt und gemessen werden. Einblicke über das Publikum, welche die Werbung gesehen haben und den Inhalt, können abgeleitet werden. So wie Daten können genutzt werden, um es zu verbessern oder die Benutzer Erfahrung zu verbessern das System und die Software.

Wenn du “Ich stimme zu” klickst, erlaubst du uns, die Cookies zu benutzen die Geräte Bezeichnung, den Web oder ähnliche Technologien zu benutzen. Deine Settings, können in deinem Gerät bei deinem Browser geändert werden.

Für den bestimmten Zweck, berechtigten Interessen beruhen darauf, mehr als auf den Inhalt. Du kannst mehr darüber in unseren Privaten und Cookie Politik lesen.